Tracking 29892 objects as of 21-Nov-2024
HD Live streaming from Space Station
objects crossing your sky now

STARLINK-30318

Track STARLINK-30318 now!
10-day predictions
STARLINK-30318 is classified as:


NORAD ID: 57711
Int'l Code: 2023-129P
Perigee: 565.4 km
Apogee: 567.0 km
Inclination: 43.0 °
Period: 95.8 minutes
Semi major axis: 6937 km
RCS: Unknown
Launch date: August 27, 2023
Source: United States (US)
Launch site: AIR FORCE EASTERN TEST RANGE (AFETR)
Your satellite tracking list
Your tracking list is empty




NASA's NSSDC Master Catalog

Two Line Element Set (TLE):
1 57711U 23129P   24325.58536244  .00000367  00000-0  42245-4 0  9998
2 57711  43.0038 176.7062 0001096 265.3292  94.7425 15.02540185 69091
Source of the keplerian elements: AFSPC